This demonstration page uses our WeatherBlox Daily Observations layout. Learn more.

Left ArrowRight Arrow

Hourly Observations for April 27, 2018

Temp ( °F °C ) Dew Point ( °F °C ) Humidity (%) Winds ( mph kmh ) Pressure ( in mb ) Visibility ( mi km ) Precip ( " mm )
12:59 am 00:59 Mostly Cloudy 59 15 51 10.6 75 75 SE 8 13 29.82 1010 10 16 0.00 0.00
1:59 am 01:59 Mostly Cloudy 59 15 53 11.7 81 81 SE 6 9 29.80 1009 10 16 0.00 0.00
2:59 am 02:59 Mostly Cloudy 59 15 55 12.8 87 87 SSE 7 11 29.78 1008 10 16 0.00 0.00
3:59 am 03:59 Cloudy 60 15.6 57 13.9 90 90 S 5 7 29.78 1008 10 16 0.00 0.00
4:59 am 04:59 Mostly Cloudy 62 16.7 57 13.9 84 84 SSW 9 15 29.78 1008 10 16 0.00 0.00
5:59 am 05:59 Mostly Cloudy 62 16.7 56 13.3 80 80 SW 7 11 29.78 1008 10 16 0.00 0.00
6:59 am 06:59 Mostly Cloudy 62 16.7 57 13.9 84 84 SW 6 9 29.79 1009 10 16 0.00 0.00
7:59 am 07:59 Mostly Cloudy 62 16.7 57 13.9 84 84 SSW 7 11 29.79 1009 10 16 0.00 0.00
8:59 am 08:59 Mostly Cloudy 62 16.7 56 13.3 80 80 VRB 5 7 29.77 1008 10 16 0.00 0.03
9:59 am 09:59 Mostly Cloudy 66 18.9 56 13.3 70 70 SW 9 15 29.77 1008 10 16 0.00 0.00
10:59 am 10:59 Partly Cloudy 68 20 56 13.3 65 65 WSW 8 13 29.77 1008 10 16 0.00 0.00
11:59 am 11:59 Partly Cloudy 71 21.7 55 12.8 57 57 W 7 11 29.77 1008 10 16 0.00 0.00
12:59 pm 12:59 Mostly Cloudy 71 21.7 54 12.2 55 55 W 7 11 29.76 1008 10 16 0.00 0.00
1:59 pm 13:59 Partly Cloudy 73 22.8 54 12.2 51 51 WSW 7 11 29.75 1007 10 16 0.00 0.00
2:59 pm 14:59 Partly Cloudy 76 24.4 54 12.2 47 47 S 13 20 29.73 1007 10 16 0.00 0.00
3:59 pm 15:59 Mostly Cloudy 70 21.1 54 12.2 57 57 ENE 7 11 29.72 1006 10 16 0.00 0.00
4:59 pm 16:59 Mostly Cloudy 69 20.6 56 13.3 63 63 E 7 11 29.71 1006 10 16 0.00 0.00
5:59 pm 17:59 Mostly Cloudy 69 20.6 57 13.9 66 66 ESE 5 7 29.72 1006 10 16 0.00 0.03
6:59 pm 18:59 Mostly Cloudy 66 18.9 56 13.3 70 70 N 8 13 29.73 1007 10 16 0.00 0.00
7:59 pm 19:59 Mostly Cloudy 62 16.7 55 12.8 78 78 NNE 9 15 29.75 1007 10 16 0.00 0.00
8:59 pm 20:59 Mostly Cloudy 60 15.6 55 12.8 84 84 VRB 6 9 29.77 1008 10 16 0.00 0.00
9:59 pm 21:59 Mostly Clear 60 15.6 54 12.2 80 80 N 12 19 29.79 1009 10 16 0.00 0.00
10:59 pm 22:59 Mostly Cloudy 60 15.6 54 12.2 80 80 VRB 5 7 29.80 1009 10 16 0.00 0.00
11:59 pm 23:59 Clear 58 14.4 53 11.7 84 84 Calm 29.81 1009 10 16 0.00 0.00

Powered by AerisWeather